TimeEST,TemperatureF,Dew PointF,Humidity,Sea Level PressureIn,VisibilityMPH,Wind Direction,Wind SpeedMPH,Gust SpeedMPH,PrecipitationIn,Events,Conditions,WindDirDegrees,DateUTC
12:07 AM,17.6,14.0,86,29.70,1.8,West,9.2,18.4,0.00,Snow,Light Snow,270,2013-02-01 05:07:00
12:17 AM,17.6,15.8,93,29.70,3.0,West,12.7,20.7,0.00,Snow,Light Snow,280,2013-02-01 05:17:00
12:49 AM,17.6,12.2,79,29.68,2.5,West,12.7,-,0.00,Snow,Light Snow,270,2013-02-01 05:49:00
1:54 AM,17.1,12.0,81,29.80,7.0,West,18.4,25.3,0.00,Snow,Light Snow,280,2013-02-01 06:54:00
2:16 AM,17.6,10.4,73,29.69,9.0,West,16.1,21.9,0.00,,Overcast,280,2013-02-01 07:16:00
3:21 AM,15.8,12.2,86,29.70,1.8,West,11.5,-,0.00,Snow,Light Snow,280,2013-02-01 08:21:00
3:28 AM,15.8,12.2,86,29.70,0.8,West,10.4,-,0.00,Snow,Light Snow,280,2013-02-01 08:28:00
4:08 AM,14.0,10.4,86,29.73,1.0,WNW,13.8,23.0,0.00,Snow,Light Snow,290,2013-02-01 09:08:00
4:17 AM,14.0,10.4,86,29.73,1.5,WNW,13.8,-,0.00,Snow,Light Snow,290,2013-02-01 09:17:00
4:42 AM,12.2,8.6,85,29.74,1.5,West,11.5,-,0.00,Snow,Light Snow,260,2013-02-01 09:42:00
4:54 AM,12.9,10.0,88,29.86,1.2,West,11.5,18.4,0.00,Snow,Light Snow,280,2013-02-01 09:54:00
5:03 AM,12.2,10.4,92,29.76,0.8,West,13.8,19.6,0.00,Snow,Light Snow,260,2013-02-01 10:03:00
5:15 AM,12.2,10.4,92,29.77,0.2,WNW,17.3,21.9,0.00,Fog-Snow,Heavy Snow,290,2013-02-01 10:15:00
5:25 AM,12.2,8.6,85,29.78,1.0,West,11.5,21.9,0.00,Snow,Light Snow,280,2013-02-01 10:25:00
5:42 AM,12.2,8.6,85,29.79,2.0,West,12.7,20.7,0.00,Snow,Light Snow,280,2013-02-01 10:42:00
5:51 AM,12.2,8.6,85,29.80,2.5,West,11.5,20.7,0.00,Snow,Light Snow,280,2013-02-01 10:51:00
5:54 AM,12.0,8.1,84,29.92,2.5,West,13.8,20.7,0.00,Snow,Light Snow,280,2013-02-01 10:54:00
6:06 AM,12.2,6.8,79,29.80,1.8,West,17.3,24.2,0.00,Snow,Light Snow,280,2013-02-01 11:06:00
6:18 AM,10.4,6.8,85,29.81,1.2,WNW,23.0,31.1,0.00,Snow,Light Snow,290,2013-02-01 11:18:00
6:38 AM,10.4,5.0,79,29.83,2.5,WNW,20.7,28.8,0.00,Snow,Light Snow,290,2013-02-01 11:38:00
6:54 AM,10.9,6.1,81,29.96,1.0,West,15.0,21.9,0.00,Snow,Light Snow,270,2013-02-01 11:54:00
7:15 AM,10.4,6.8,85,29.85,1.2,West,15.0,20.7,0.00,Snow,Light Snow,270,2013-02-01 12:15:00
7:21 AM,10.4,6.8,85,29.86,2.0,West,15.0,-,0.00,Snow,Light Snow,280,2013-02-01 12:21:00
7:27 AM,10.4,5.0,79,29.86,1.5,West,15.0,27.6,0.00,Snow,Light Snow,270,2013-02-01 12:27:00
7:43 AM,10.4,5.0,79,29.87,1.0,West,16.1,24.2,0.00,Snow,Light Snow,270,2013-02-01 12:43:00
7:54 AM,10.0,3.9,76,30.00,1.2,West,13.8,31.1,0.00,Snow,Light Snow,270,2013-02-01 12:54:00
8:07 AM,8.6,5.0,85,29.88,0.8,West,15.0,23.0,0.00,Snow,Light Snow,260,2013-02-01 13:07:00
8:20 AM,8.6,5.0,85,29.89,0.8,West,15.0,26.5,0.00,Snow,Light Snow,270,2013-02-01 13:20:00
8:30 AM,8.6,3.2,79,29.90,1.2,West,17.3,24.2,0.00,Snow,Light Snow,270,2013-02-01 13:30:00
8:37 AM,8.6,3.2,79,29.90,1.0,West,15.0,28.8,0.00,Snow,Light Snow,270,2013-02-01 13:37:00
9:31 AM,10.4,3.2,73,29.93,2.0,West,12.7,24.2,0.00,Snow,Light Snow,270,2013-02-01 14:31:00
9:51 AM,10.4,3.2,73,29.94,1.5,West,16.1,24.2,0.00,Snow,Light Snow,270,2013-02-01 14:51:00
9:54 AM,10.0,3.9,76,30.07,1.2,West,18.4,29.9,0.00,Snow,Light Snow,280,2013-02-01 14:54:00
10:12 AM,10.4,3.2,73,29.95,3.0,West,15.0,26.5,0.00,Snow,Light Snow,260,2013-02-01 15:12:00
10:28 AM,10.4,3.2,73,29.96,2.0,West,21.9,28.8,0.00,Snow,Light Snow,280,2013-02-01 15:28:00
10:35 AM,10.4,3.2,73,29.96,1.2,West,13.8,31.1,0.00,Snow,Light Snow,270,2013-02-01 15:35:00
10:54 AM,10.0,3.0,73,30.09,1.5,West,19.6,31.1,0.00,Snow,Light Snow,270,2013-02-01 15:54:00
11:54 AM,10.0,3.0,73,30.11,1.5,West,13.8,31.1,0.00,Snow,Light Snow,280,2013-02-01 16:54:00
1:16 PM,10.4,3.2,73,30.01,1.2,West,19.6,25.3,0.00,Snow,Light Snow,280,2013-02-01 18:16:00
1:32 PM,10.4,1.4,67,30.01,2.5,West,16.1,27.6,0.00,Snow,Light Snow,270,2013-02-01 18:32:00
1:40 PM,10.4,1.4,67,30.01,3.0,West,17.3,28.8,0.00,Snow,Light Snow,260,2013-02-01 18:40:00
1:44 PM,10.4,1.4,67,30.01,2.5,West,17.3,28.8,0.00,Snow,Light Snow,270,2013-02-01 18:44:00
1:54 PM,10.9,1.9,67,30.14,2.0,West,17.3,32.2,0.00,,Overcast,270,2013-02-01 18:54:00
2:10 PM,10.4,1.4,67,30.01,1.8,West,23.0,31.1,0.00,,Overcast,280,2013-02-01 19:10:00
2:20 PM,10.4,1.4,67,30.02,3.0,West,17.3,28.8,0.00,Snow,Light Snow,270,2013-02-01 19:20:00
2:41 PM,10.4,1.4,67,30.03,2.0,West,17.3,28.8,0.00,Snow,Light Snow,270,2013-02-01 19:41:00
2:54 PM,10.0,1.9,70,30.16,1.8,West,21.9,31.1,0.00,Snow,Light Snow,280,2013-02-01 19:54:00
3:11 PM,10.4,1.4,67,30.04,2.5,West,13.8,29.9,0.00,Snow,Light Snow,280,2013-02-01 20:11:00
3:15 PM,10.4,1.4,67,30.04,3.0,West,21.9,29.9,0.00,Snow,Light Snow,270,2013-02-01 20:15:00
3:54 PM,10.0,1.0,67,30.19,6.0,West,13.8,27.6,0.00,,Mostly Cloudy,270,2013-02-01 20:54:00
4:49 PM,10.4,-0.4,62,30.07,10.0,West,20.7,27.6,0.00,,Overcast,270,2013-02-01 21:49:00
5:39 PM,8.6,-0.4,67,30.08,10.0,West,16.1,28.8,N/A,,Mostly Cloudy,280,2013-02-01 22:39:00
5:54 PM,9.0,-0.9,64,30.23,10.0,West,16.1,27.6,N/A,,Partly Cloudy,280,2013-02-01 22:54:00
6:20 PM,8.6,-0.4,67,30.10,10.0,West,11.5,-,0.00,,Mostly Cloudy,270,2013-02-01 23:20:00
6:49 PM,8.6,-0.4,67,30.11,10.0,West,17.3,27.6,0.00,,Scattered Clouds,280,2013-02-01 23:49:00
6:54 PM,8.1,-0.9,67,30.26,10.0,West,17.3,27.6,0.00,,Partly Cloudy,270,2013-02-01 23:54:00
7:54 PM,8.1,-2.0,64,30.29,10.0,WSW,12.7,26.5,N/A,,Partly Cloudy,250,2013-02-02 00:54:00
8:46 PM,6.8,-0.4,72,30.15,10.0,West,15.0,-,N/A,,Mostly Cloudy,270,2013-02-02 01:46:00
8:54 PM,7.0,-0.9,70,30.30,10.0,West,17.3,26.5,N/A,,Mostly Cloudy,280,2013-02-02 01:54:00
9:07 PM,6.8,-0.4,72,30.15,10.0,West,17.3,24.2,N/A,,Scattered Clouds,280,2013-02-02 02:07:00
9:54 PM,7.0,-0.9,70,30.30,10.0,West,15.0,-,N/A,,Partly Cloudy,270,2013-02-02 02:54:00
10:23 PM,6.8,-0.4,72,30.15,10.0,West,13.8,-,N/A,,Mostly Cloudy,280,2013-02-02 03:23:00
10:54 PM,6.1,-0.9,73,30.31,10.0,West,11.5,21.9,N/A,,Overcast,270,2013-02-02 03:54:00
11:54 PM,6.1,-0.9,73,30.31,10.0,West,11.5,-,0.00,,Overcast,260,2013-02-02 04:54:00